This is the latest recevied weather packets stored in our database for station/object W4JCW. If no packets are shown the sender has not sent any weather packets the latest 10 day(s).
| Time | Temp. | Humidity | Pressure | Rain* | Wind** | Luminosity | Snow |
|---|---|---|---|---|---|---|---|
| 1777751585 | 13.89° C | 76% | 1011.2 hPa | 0 mm | - | 174 W/m² | - |
| 1777751281 | 13.89° C | 80% | 1011 hPa | 0 mm | - | 153 W/m² | - |
| 1777750979 | 13.89° C | 83% | 1010.9 hPa | 0 mm | - | 133 W/m² | - |
| 1777750674 | 13.33° C | 80% | 1011 hPa | 0 mm | - | 166 W/m² | - |
| 1777750372 | 13.33° C | 80% | 1010.9 hPa | 0 mm | - | 200 W/m² | - |
| 1777750071 | 13.33° C | 79% | 1010.9 hPa | 0 mm | - | 222 W/m² | - |
| 1777749769 | 13.33° C | 80% | 1010.8 hPa | 0 mm | - | 240 W/m² | - |
| 1777749466 | 13.33° C | 78% | 1011.1 hPa | 0 mm | - | 210 W/m² | - |
| 1777749164 | 13.33° C | 80% | 1011.3 hPa | 0 mm | - | 199 W/m² | - |
| 1777748861 | 13.33° C | 81% | 1011.1 hPa | 0 mm | - | 210 W/m² | - |
| 1777748558 | 13.33° C | 83% | 1011.1 hPa | 0 mm | - | 226 W/m² | - |
| 1777748253 | 13.33° C | 81% | 1011 hPa | 0 mm | - | 212 W/m² | - |
| 1777747950 | 13.33° C | 82% | 1011 hPa | 0 mm | - | 241 W/m² | - |
| 1777747646 | 13.33° C | 82% | 1010.9 hPa | 0 mm | - | 269 W/m² | - |
| 1777747341 | 13.33° C | 82% | 1010.7 hPa | 0 mm | - | 268 W/m² | - |
| 1777747038 | 13.33° C | 84% | 1010.7 hPa | 0 mm | - | 312 W/m² | - |
| 1777746735 | 13.33° C | 84% | 1010.9 hPa | 0 mm | - | 347 W/m² | - |
| 1777746430 | 13.33° C | 84% | 1011.1 hPa | 0 mm | - | 321 W/m² | - |
| 1777746125 | 13.33° C | 84% | 1011.1 hPa | 0 mm | - | 315 W/m² | - |
| 1777745823 | 12.78° C | 84% | 1011 hPa | 0 mm | - | 365 W/m² | - |
| 1777745522 | 12.78° C | 88% | 1010.9 hPa | 0 mm | - | 302 W/m² | - |
| 1777745218 | 12.78° C | 88% | 1011 hPa | 0 mm | - | 271 W/m² | - |
| 1777744915 | 12.78° C | 88% | 1011 hPa | 0 mm | - | 286 W/m² | - |
| 1777744615 | 12.78° C | 90% | 1011.1 hPa | 0 mm | - | 313 W/m² | - |
| 1777744311 | 12.78° C | 91% | 1011 hPa | 0 mm | - | 260 W/m² | - |
* Rain latest hour (hover to see other rain measurements)
** Current wind speed in m/s (hover to see current wind gust speed)